Port Angeles, WA
on Saturday, December 29, 2012

Saturday
Previous Day Next Day
Daily Summary
 ActualAverageRecord
Temperature
Mean Temperature °F °F  
Max Temperature 45°F 42°F 59°F (1949)
Min Temperature 39°F 33°F 10°F (1968)
Degree Days
Heating Degree Days 23    
Moisture
Dew Point 39°F   
Average Humidity 92    
Maximum Humidity 93    
Minimum Humidity 89    
Precipitation
Precipitation 0.03 in in in ()
Wind
Wind Speed 3 mph   
Max Wind Speed 7 mph   
Max Gust Speed mph   
Visibility 9 miles   
Events Rain   
Averages and records for this station are not official NWS values.
Key: T is trace of precipitation, MM is missing value
Source: NWS Daily Summary
Seasonal Weather Averages
Time(PST)TemperatureDew PointHumidity Pressure Visibility Wind DirectionWind SpeedGust SpeedPrecipitationEvents Conditions
12:19 AM 41.0°F 39.0°F 93% 30.15 in 10.0 miles West 3.5 mph - N/A   Overcast
12:53 AM 42.1°F 39.0°F 89% 30.16 in 10.0 miles WSW 3.5 mph - N/A   Overcast
1:53 AM 41.0°F 39.0°F 93% 30.17 in 10.0 miles WSW 5.8 mph - 0.00 in Rain Light Rain
2:53 AM 41.0°F 39.0°F 93% 30.17 in 10.0 miles WSW 3.5 mph - 0.00 in Rain Light Rain
3:53 AM 41.0°F 39.0°F 93% 30.17 in 10.0 miles Calm Calm - 0.00 in   Overcast
4:32 AM 41.0°F 39.0°F 93% 30.15 in 10.0 miles WSW 3.5 mph - N/A   Overcast
4:53 AM 41.0°F 39.0°F 93% 30.17 in 10.0 miles SW 4.6 mph - N/A   Overcast
5:53 AM 41.0°F 37.9°F 89% 30.17 in 10.0 miles SW 5.8 mph - N/A   Overcast
6:53 AM 39.9°F 37.9°F 93% 30.16 in 10.0 miles SW 4.6 mph - N/A   Overcast
7:29 AM 39.0°F 37.0°F 93% 30.15 in 10.0 miles SW 3.5 mph - 0.00 in Rain Light Rain
7:44 AM 39.0°F 37.0°F 93% 30.15 in 10.0 miles SW 5.8 mph - 0.00 in   Overcast
7:53 AM 39.0°F 37.0°F 93% 30.16 in 10.0 miles WSW 4.6 mph - 0.00 in   Overcast
8:53 AM 41.0°F 37.9°F 89% 30.18 in 10.0 miles SW 5.8 mph - N/A   Overcast
9:00 AM 41.0°F 37.9°F 89% 30.17 in 10.0 miles SW 4.6 mph - 0.00 in Rain Light Rain
9:53 AM 42.1°F 39.0°F 89% 30.18 in 8.0 miles Calm Calm - 0.00 in Rain Light Rain
10:53 AM 44.1°F 41.0°F 89% 30.18 in 10.0 miles Calm Calm - 0.00 in   Overcast
11:03 AM 44.1°F 41.0°F 89% 30.17 in 10.0 miles West 3.5 mph - N/A   Overcast
11:53 AM 43.0°F 39.9°F 89% 30.17 in 9.0 miles West 4.6 mph - 0.00 in Rain Light Rain
12:07 PM 43.0°F 41.0°F 93% 30.16 in 4.0 miles West 4.6 mph - 0.00 in Rain Light Rain
12:16 PM 43.0°F 41.0°F 93% 30.16 in 7.0 miles Calm Calm - 0.00 in Rain Light Rain
12:24 PM 43.0°F 41.0°F 93% 30.15 in 9.0 miles Calm Calm - 0.00 in Rain Light Rain
12:41 PM 43.0°F 41.0°F 93% 30.15 in 10.0 miles Calm Calm - 0.00 in Rain Light Rain
12:53 PM 44.1°F 41.0°F 89% 30.15 in 10.0 miles Calm Calm - 0.00 in   Overcast
1:18 PM 44.1°F 41.0°F 89% 30.14 in 10.0 miles Calm Calm - 0.00 in Rain Light Rain
1:53 PM 45.0°F 42.1°F 90% 30.15 in 10.0 miles Calm Calm - 0.00 in   Overcast
2:34 PM 44.1°F 42.1°F 93% 30.14 in 6.0 miles NE 4.6 mph - 0.00 in   Overcast
2:53 PM 42.8°F 41.0°F 93% 30.15 in 8.0 miles ENE 4.6 mph - N/A Rain Light Rain
3:53 PM 42.1°F 39.9°F 92% 30.17 in 6.0 miles East 5.8 mph - 0.01 in Rain Light Rain
4:53 PM 42.1°F 39.9°F 92% 30.18 in 10.0 miles Calm Calm - 0.01 in Rain Light Rain
5:53 PM 42.1°F 39.9°F 92% 30.18 in 10.0 miles SE 4.6 mph - 0.01 in Rain Light Rain
6:53 PM 41.0°F 39.0°F 93% 30.19 in 10.0 miles SW 3.5 mph - 0.00 in Rain Light Rain
7:21 PM 41.0°F 39.0°F 93% 30.18 in 5.0 miles Calm Calm - 0.00 in Rain Light Rain
7:37 PM 41.0°F 39.0°F 93% 30.19 in 10.0 miles Calm Calm - 0.00 in Rain Light Rain
7:53 PM 41.0°F 39.0°F 93% 30.20 in 10.0 miles Calm Calm - 0.00 in Rain Light Rain
8:04 PM 41.0°F 39.0°F 93% 30.19 in 10.0 miles SSW 3.5 mph - 0.00 in   Overcast
8:53 PM 41.0°F 39.0°F 93% 30.22 in 10.0 miles WSW 3.5 mph - 0.00 in   Overcast
9:13 PM 42.1°F 39.0°F 89% 30.21 in 10.0 miles ESE 3.5 mph - 0.00 in Rain Light Rain
9:40 PM 41.0°F 39.0°F 93% 30.21 in 10.0 miles SSE 6.9 mph - 0.00 in   Overcast
9:53 PM 41.0°F 39.2°F 93% 30.22 in 10.0 miles SE 5.8 mph - N/A   Overcast
10:53 PM 41.0°F 37.9°F 89% 30.23 in 10.0 miles SE 6.9 mph - N/A   Overcast
11:53 PM 39.9°F 37.9°F 93% 30.24 in 10.0 miles Calm Calm - N/A   Overcast
Moon Phase
Dec. 29 Jan. 04 Jan. 11 Jan. 18 Jan. 26
Sunrise:08:04 AM (PST) Moon Rise:06:15 PM (PST)12/29
Sunset:04:28 PM (PST) Moon Set:08:33 AM (PST)12/29

Copyright © 2014 The Weather Underground, Inc.